GW6677 Weather Reports


time (UTC)temp
C
wind
direction
speed
KPH
gust
KPH
rain 1hr
cm
rain 24hr
cm
rain mn
cm
humidity
%
barometer
mb
20260906161042 24 333 1.6 1.6 0.00 0.00 0.00 68 1019.7
20260906160541 25 333 0.0 0.0 0.00 0.00 0.00 69 1019.4
20260906160040 25 126 0.0 0.0 0.00 0.00 0.00 66 1019.4
20260906155538 25 132 3.2 3.2 0.00 0.00 0.00 67 1019.4
20260906155034 25 168 0.0 0.0 0.00 0.00 0.00 68 1018.9
20260906154529 25 204 0.0 0.0 0.00 0.00 0.00 67 1019.4
20260906154028 24 209 3.2 3.2 0.00 0.00 0.00 69 1018.9
20260906153527 24 246 3.2 3.2 0.00 0.00 0.00 73 1019.4
20260906153022 24 60 3.2 3.2 0.00 0.00 0.00 71 1019.4
20260906152516 25 100 1.6 1.6 0.00 0.00 0.00 70 1019.4
20260906152016 25 67 0.0 0.0 0.00 0.00 0.00 69 1019.4
20260906151512 24 63 1.6 1.6 0.00 0.00 0.00 74 1019.4
20260906151007 24 65 0.0 0.0 0.00 0.00 0.00 71 1018.9
20260906150503 24 40 0.0 0.0 0.00 0.00 0.00 72 1018.9
20260906150002 23 41 0.0 0.0 0.00 0.00 0.00 71 1018.9
20260906145501 23 30 3.2 3.2 0.00 0.00 0.00 78 1019.4
20260906145001 24 94 3.2 3.2 0.00 0.00 0.00 73 1018.9
20260906144456 23 147 0.0 0.0 0.00 0.00 0.00 76 1018.9
20260906143951 23 152 0.0 0.0 0.00 0.00 0.00 76 1018.9
20260906143447 22 153 1.6 1.6 0.00 0.00 0.00 76 1018.9
20260906142943 22 156 0.0 0.0 0.00 0.00 0.00 79 1018.6
20260906142436 22 156 3.2 3.2 0.00 0.00 0.00 82 1018.9
20260906141931 22 156 3.2 3.2 0.00 0.00 0.00 83 1018.6
20260906141426 21 156 3.2 3.2 0.00 0.00 0.00 81 1018.9
20260906140925 21 157 0.0 0.0 0.00 0.00 0.00 84 1018.9
20260906140420 20 120 0.0 0.0 0.00 0.00 0.00 87 1018.9
20260906135918 20 119 3.2 3.2 0.00 0.00 0.00 89 1018.9
20260906135418 19 123 0.0 0.0 0.00 0.00 0.00 90 1018.6
20260906134913 19 122 3.2 3.2 0.00 0.00 0.00 90 1018.6
20260906134409 19 126 0.0 0.0 0.00 0.00 0.00 92 1019.4
20260906133903 18 126 3.2 3.2 0.00 0.00 0.00 92 1018.9
20260906133359 18 125 3.2 3.2 0.00 0.00 0.00 92 1018.9
20260906132855 18 224 0.0 0.0 0.00 0.00 0.00 95 1018.6
20260906132350 18 85 0.0 0.0 0.00 0.00 0.00 96 1018.6
20260906131845 17 86 0.0 0.0 0.00 0.00 0.00 97 1018.9
20260906131341 17 82 0.0 0.0 0.00 0.00 0.00 97 1019.4
20260906130836 17 111 0.0 0.0 0.00 0.00 0.00 98 1018.9
20260906130336 16 114 0.0 0.0 0.00 0.00 0.00 98 1019.4
20260906125835 16 114 0.0 0.0 0.00 0.00 0.00 98 1019.4
20260906125332 16 114 0.0 0.0 0.00 0.00 0.00 97 1018.9
20260906124827 15 114 0.0 0.0 0.00 0.00 0.00 97 1018.6
20260906124323 15 114 0.0 0.0 0.00 0.00 0.00 97 1018.9
20260906123822 14 114 0.0 0.0 0.00 0.00 0.00 97 1018.6
20260906123317 14 114 0.0 0.0 0.00 0.00 0.00 97 1018.6
20260906122817 13 114 0.0 0.0 0.00 0.00 0.00 97 1018.6
20260906122312 13 114 0.0 0.0 0.00 0.00 0.00 97 1018.6
20260906121809 13 114 0.0 0.0 0.00 0.00 0.00 97 1018.9
20260906121305 13 114 0.0 0.0 0.00 0.00 0.00 97 1018.6
20260906120801 13 114 0.0 0.0 0.00 0.00 0.00 97 1018.6
20260906120257 13 114 0.0 0.0 0.00 0.00 0.00 97 1018.2
20260906115753 13 114 0.0 0.0 0.00 0.00 0.00 97 1018.2
20260906115248 13 114 0.0 0.0 0.00 0.00 0.00 97 1018.6
20260906114747 13 114 0.0 0.0 0.00 0.00 0.00 97 1018.2
20260906114242 13 114 0.0 0.0 0.00 0.00 0.00 97 1018.2
20260906113737 13 114 0.0 0.0 0.00 0.00 0.00 97 1018.2
20260906113237 13 114 0.0 0.0 0.00 0.00 0.00 97 1017.9
20260906112736 13 114 0.0 0.0 0.00 0.00 0.00 97 1017.9
20260906112234 13 114 0.0 0.0 0.00 0.00 0.00 97 1017.9
20260906111733 13 114 0.0 0.0 0.00 0.00 0.00 97 1017.9
20260906111233 13 114 0.0 0.0 0.00 0.00 0.00 97 1017.9
20260906110728 13 114 0.0 0.0 0.00 0.00 0.00 97 1017.6
20260906110224 13 114 0.0 0.0 0.00 0.00 0.00 97 1017.6
20260906105722 13 114 0.0 0.0 0.00 0.00 0.00 97 1017.6
20260906105219 13 114 0.0 0.0 0.00 0.00 0.00 97 1017.6
20260906104719 13 114 0.0 0.0 0.00 0.00 0.00 97 1017.6
20260906104218 13 114 0.0 0.0 0.00 0.00 0.00 97 1017.6
20260906103715 13 114 0.0 0.0 0.00 0.00 0.00 97 1017.9
20260906103211 13 114 0.0 0.0 0.00 0.00 0.00 97 1017.6
20260906102706 14 114 0.0 0.0 0.00 0.00 0.00 97 1017.6
20260906102206 14 114 0.0 0.0 0.00 0.00 0.00 97 1017.6
20260906101705 14 114 0.0 0.0 0.00 0.00 0.00 97 1017.6
20260906101201 13 114 0.0 0.0 0.00 0.00 0.00 97 1017.6
20260906100656 13 114 0.0 0.0 0.00 0.00 0.00 97 1016.9
20260906100156 13 114 0.0 0.0 0.00 0.00 0.00 97 1017.2
20260906095651 13 114 0.0 0.0 0.00 0.00 0.00 97 1017.2
20260906095146 13 114 0.0 0.0 0.00 0.00 0.00 97 1017.2
20260906094645 13 114 0.0 0.0 0.00 0.00 0.00 97 1017.2
20260906094141 13 114 0.0 0.0 0.00 0.00 0.00 97 1017.6
20260906093638 13 114 0.0 0.0 0.00 0.00 0.00 97 1017.6
20260906093137 13 114 0.0 0.0 0.00 0.00 0.00 97 1017.6
20260906092632 13 114 0.0 0.0 0.00 0.00 0.00 97 1017.6
20260906092132 13 114 0.0 0.0 0.00 0.00 0.00 97 1017.2
20260906091629 13 114 0.0 0.0 0.00 0.00 0.00 97 1017.6
20260906091125 13 114 0.0 0.0 0.00 0.00 0.00 97 1017.6
20260906090620 13 114 0.0 0.0 0.00 0.00 0.00 97 1017.6
20260906090114 13 114 0.0 0.0 0.00 0.00 0.00 97 1017.6
20260906085613 13 114 0.0 0.0 0.00 0.00 0.00 97 1017.6
20260906085108 13 114 0.0 0.0 0.00 0.00 0.00 97 1017.2
20260906084603 13 114 0.0 0.0 0.00 0.00 0.00 97 1017.6
20260906084102 13 114 0.0 0.0 0.00 0.00 0.00 97 1017.6
20260906083557 14 114 0.0 0.0 0.00 0.00 0.00 97 1017.2
20260906083057 14 114 0.0 0.0 0.00 0.00 0.00 97 1017.6
20260906082552 14 114 0.0 0.0 0.00 0.00 0.00 97 1017.2
20260906082048 13 114 0.0 0.0 0.00 0.00 0.00 97 1017.2
20260906081543 14 114 0.0 0.0 0.00 0.00 0.00 97 1017.6
20260906081039 14 114 0.0 0.0 0.00 0.00 0.00 97 1017.6
20260906080535 14 114 0.0 0.0 0.00 0.00 0.00 97 1017.6
20260906080031 14 114 0.0 0.0 0.00 0.00 0.00 97 1017.6
20260906075531 14 114 0.0 0.0 0.00 0.00 0.00 97 1017.6
20260906075026 14 114 0.0 0.0 0.00 0.00 0.00 97 1017.6
20260906074520 14 114 0.0 0.0 0.00 0.00 0.00 97 1017.6
20260906074019 14 114 0.0 0.0 0.00 0.00 0.00 97 1017.6
20260906073514 14 114 0.0 0.0 0.00 0.00 0.00 97 1017.6
20260906073010 14 114 0.0 0.0 0.00 0.00 0.00 97 1017.6
20260906072505 14 114 0.0 0.0 0.00 0.00 0.00 97 1017.6
20260906072001 15 114 0.0 0.0 0.00 0.00 0.00 97 1017.6
20260906071457 15 114 0.0 0.0 0.00 0.00 0.00 97 1017.6
20260906070952 15 114 0.0 0.0 0.00 0.00 0.00 97 1017.6
20260906070448 15 114 0.0 0.0 0.00 0.00 0.00 97 1017.6
20260906065943 15 114 0.0 0.0 0.00 0.00 0.00 97 1017.6
20260906065437 15 114 0.0 0.0 0.00 0.00 0.00 97 1017.6
20260906064933 15 114 0.0 0.0 0.00 0.00 0.00 97 1017.6
20260906064429 15 114 0.0 0.0 0.00 0.00 0.00 97 1017.6
20260906063924 15 114 0.0 0.0 0.00 0.00 0.00 97 1017.6
20260906063419 15 114 0.0 0.0 0.00 0.00 0.00 97 1017.6
20260906062914 15 114 0.0 0.0 0.00 0.00 0.00 97 1017.6
20260906062414 15 114 0.0 0.0 0.00 0.00 0.00 97 1017.2
20260906061909 15 114 0.0 0.0 0.00 0.00 0.00 97 1017.2
20260906061406 15 114 0.0 0.0 0.00 0.00 0.00 97 1017.2
20260906060900 15 114 0.0 0.0 0.00 0.00 0.00 97 1017.2
20260906060358 15 114 0.0 0.0 0.00 0.00 0.00 97 1017.6
20260906055853 15 114 0.0 0.0 0.00 0.00 0.00 97 1017.6
20260906055349 15 114 0.0 0.0 0.00 0.00 0.00 97 1017.2
20260906054844 15 114 0.0 0.0 0.00 0.00 0.00 97 1017.6
20260906054338 15 114 0.0 0.0 0.00 0.00 0.00 97 1017.6
20260906053835 16 114 0.0 0.0 0.00 0.00 0.00 97 1017.6
20260906053331 16 114 0.0 0.0 0.00 0.00 0.00 97 1017.6
20260906052826 16 114 0.0 0.0 0.00 0.00 0.00 97 1017.6
20260906052322 16 114 0.0 0.0 0.00 0.00 0.00 97 1017.6
20260906051819 16 114 0.0 0.0 0.00 0.00 0.00 97 1017.2
20260906051318 16 114 0.0 0.0 0.00 0.00 0.00 97 1017.6
20260906050814 16 114 0.0 0.0 0.00 0.00 0.00 97 1017.6
20260906050309 16 114 0.0 0.0 0.00 0.00 0.00 97 1017.2
20260906045808 16 114 0.0 0.0 0.00 0.00 0.00 97 1017.2
20260906045305 16 114 0.0 0.0 0.00 0.00 0.00 97 1017.6
20260906044759 16 114 0.0 0.0 0.00 0.00 0.00 97 1017.6
20260906044253 16 114 0.0 0.0 0.00 0.00 0.00 97 1017.2
20260906043749 16 114 0.0 0.0 0.00 0.00 0.00 97 1017.2
20260906043245 17 114 0.0 0.0 0.00 0.00 0.00 97 1017.2
20260906042745 17 114 0.0 0.0 0.00 0.00 0.00 97 1017.2
20260906042244 17 114 0.0 0.0 0.00 0.00 0.00 97 1017.6
20260906041739 17 114 0.0 0.0 0.00 0.00 0.00 96 1017.2
20260906041235 17 114 0.0 0.0 0.00 0.00 0.00 97 1016.9
20260906040730 17 114 0.0 0.0 0.00 0.00 0.00 96 1016.9
20260906040225 17 114 0.0 0.0 0.00 0.00 0.00 96 1016.9
20260906035721 17 114 0.0 0.0 0.00 0.00 0.00 96 1016.9
20260906035216 17 114 0.0 0.0 0.00 0.00 0.00 96 1016.9
20260906034716 17 114 0.0 0.0 0.00 0.00 0.00 96 1016.9
20260906034211 17 114 0.0 0.0 0.00 0.00 0.00 96 1016.6
20260906033707 17 114 0.0 0.0 0.00 0.00 0.00 96 1016.9
20260906033206 17 114 0.0 0.0 0.00 0.00 0.00 96 1016.6
20260906032703 18 114 0.0 0.0 0.00 0.00 0.00 96 1016.6
20260906032158 18 114 0.0 0.0 0.00 0.00 0.00 96 1016.2
20260906031653 18 114 0.0 0.0 0.00 0.00 0.00 96 1016.6
20260906031148 18 114 0.0 0.0 0.00 0.00 0.00 96 1016.2
20260906030648 18 114 0.0 0.0 0.00 0.00 0.00 96 1016.2
20260906030143 18 114 0.0 0.0 0.00 0.00 0.00 96 1016.2
20260906025642 18 114 0.0 0.0 0.00 0.00 0.00 96 1016.2
20260906025142 18 114 0.0 0.0 0.00 0.00 0.00 96 1016.2
20260906024637 18 114 0.0 0.0 0.00 0.00 0.00 96 1015.9
20260906024136 18 114 0.0 0.0 0.00 0.00 0.00 96 1015.9
20260906023632 18 114 0.0 0.0 0.00 0.00 0.00 96 1015.9
20260906023132 18 114 0.0 0.0 0.00 0.00 0.00 96 1016.2
20260906022627 18 114 0.0 0.0 0.00 0.00 0.00 96 1015.9
20260906022123 18 114 0.0 0.0 0.00 0.00 0.00 95 1015.9
20260906021619 18 114 0.0 0.0 0.00 0.00 0.00 95 1016.2
20260906021117 18 114 0.0 0.0 0.00 0.00 0.00 95 1015.9
20260906020617 18 114 0.0 0.0 0.00 0.00 0.00 95 1016.2
20260906020112 18 114 0.0 0.0 0.00 0.00 0.00 95 1015.9
20260906015606 18 114 0.0 0.0 0.00 0.00 0.00 95 1015.9
20260906015105 18 114 0.0 0.0 0.00 0.00 0.00 95 1015.9
20260906014559 19 114 0.0 0.0 0.00 0.00 0.00 94 1015.5
20260906014056 19 114 0.0 0.0 0.00 0.00 0.00 94 1015.5
20260906013551 19 114 0.0 0.0 0.00 0.00 0.00 94 1015.5
20260906013046 19 115 0.0 0.0 0.00 0.00 0.00 94 1015.1
20260906012541 19 114 0.0 0.0 0.00 0.00 0.00 94 1015.1
20260906012041 19 114 0.0 0.0 0.00 0.00 0.00 94 1015.1
20260906011537 19 114 0.0 0.0 0.00 0.00 0.00 93 1015.1
20260906011037 19 114 0.0 0.0 0.00 0.00 0.00 93 1015.1
20260906010532 20 114 0.0 0.0 0.00 0.00 0.00 92 1015.1
20260906010028 20 114 0.0 0.0 0.00 0.00 0.00 92 1015.1
20260906005527 20 114 0.0 0.0 0.00 0.00 0.00 91 1015.1
20260906005027 20 114 0.0 0.0 0.00 0.00 0.00 90 1015.1
20260906004526 20 114 0.0 0.0 0.00 0.00 0.00 89 1015.1
20260906004021 21 114 0.0 0.0 0.00 0.00 0.00 89 1015.1
20260906003516 21 114 0.0 0.0 0.00 0.00 0.00 88 1015.1
20260906003013 21 114 0.0 0.0 0.00 0.00 0.00 88 1015.1
20260906002507 21 114 0.0 0.0 0.00 0.00 0.00 87 1015.1
20260906002002 21 114 0.0 0.0 0.00 0.00 0.00 87 1015.1
20260906001457 21 113 0.0 0.0 0.00 0.00 0.00 86 1015.1
20260906000951 22 113 3.2 3.2 0.00 0.00 0.00 85 1015.1
20260906000448 22 113 0.0 0.0 0.00 0.00 0.00 85 1015.5
20260905235942 22 112 0.0 0.0 0.00 0.00 0.00 85 1015.1
20260905235442 22 112 0.0 0.0 0.00 0.00 0.00 84 1015.5
20260905234937 22 103 0.0 0.0 0.00 0.00 0.00 83 1015.5
20260905234433 23 103 3.2 3.2 0.00 0.00 0.00 82 1015.1
20260905233932 23 102 1.6 1.6 0.00 0.00 0.00 81 1015.9
20260905233428 23 102 0.0 0.0 0.00 0.00 0.00 80 1015.9
20260905232927 23 105 0.0 0.0 0.00 0.00 0.00 80 1015.5
20260905232423 24 105 0.0 0.0 0.00 0.00 0.00 78 1015.5
20260905231918 24 105 0.0 0.0 0.00 0.00 0.00 77 1015.9
20260905231414 24 104 0.0 0.0 0.00 0.00 0.00 75 1015.5
20260905230911 25 105 0.0 0.0 0.00 0.00 0.00 74 1015.5
20260905230408 25 103 0.0 0.0 0.00 0.00 0.00 74 1015.1
20260905225907 25 126 0.0 0.0 0.00 0.00 0.00 70 1015.5
20260905225402 25 126 0.0 0.0 0.00 0.00 0.00 72 1015.5
20260905224857 25 79 3.2 3.2 0.00 0.00 0.00 72 1015.5
20260905224354 25 109 0.0 0.0 0.00 0.00 0.00 71 1015.1
20260905223848 25 99 0.0 0.0 0.00 0.00 0.00 72 1015.1
20260905223346 26 100 1.6 1.6 0.00 0.00 0.00 69 1015.1
20260905222846 26 150 3.2 3.2 0.00 0.00 0.00 71 1015.1
20260905222344 26 266 3.2 3.2 0.00 0.00 0.00 70 1015.1
20260905221841 26 223 0.0 0.0 0.00 0.00 0.00 68 1015.1
20260905221337 26 198 0.0 0.0 0.00 0.00 0.00 71 1015.1
20260905220833 26 133 3.2 3.2 0.00 0.00 0.00 70 1015.1
20260905220329 26 133 3.2 3.2 0.00 0.00 0.00 71 1015.1
20260905215828 27 158 3.2 3.2 0.00 0.00 0.00 68 1015.1
20260905215324 26 119 0.0 0.0 0.00 0.00 0.00 69 1015.5
20260905214820 26 156 0.0 0.0 0.00 0.00 0.00 67 1015.1
20260905214315 26 243 3.2 3.2 0.00 0.00 0.00 69 1014.8
20260905213810 26 192 0.0 0.0 0.00 0.00 0.00 70 1015.1
20260905213306 26 108 3.2 3.2 0.00 0.00 0.00 70 1015.1
20260905212801 26 146 3.2 3.2 0.00 0.00 0.00 72 1015.5
20260905212300 26 146 0.0 0.0 0.00 0.00 0.00 72 1015.1
20260905211755 26 146 0.0 0.0 0.00 0.00 0.00 70 1015.5
20260905211250 26 146 0.0 0.0 0.00 0.00 0.00 69 1015.1
20260905210747 27 146 0.0 0.0 0.00 0.00 0.00 65 1015.1
20260905210246 26 102 0.0 0.0 0.00 0.00 0.00 70 1015.1
20260905205745 26 202 0.0 0.0 0.00 0.00 0.00 68 1015.5
20260905205240 25 156 0.0 0.0 0.00 0.00 0.00 74 1015.5
20260905204739 25 38 0.0 0.0 0.00 0.00 0.00 73 1015.1
20260905204235 25 40 0.0 0.0 0.00 0.00 0.00 73 1015.1
20260905203735 26 37 0.0 0.0 0.00 0.00 0.00 72 1015.1
20260905203230 26 37 0.0 0.0 0.00 0.00 0.00 73 1015.5
20260905202726 25 36 0.0 0.0 0.00 0.00 0.00 74 1015.1
20260905202221 26 82 3.2 3.2 0.00 0.00 0.00 72 1015.1
20260905201717 26 350 3.2 3.2 0.00 0.00 0.00 70 1015.1
20260905201216 26 18 1.6 1.6 0.00 0.00 0.00 71 1015.5
20260905200712 26 107 0.0 0.0 0.00 0.00 0.00 72 1015.5
20260905200208 25 107 0.0 0.0 0.00 0.00 0.00 75 1015.5
20260905195705 25 107 3.2 3.2 0.00 0.00 0.00 75 1015.1
20260905195200 25 120 0.0 0.0 0.00 0.00 0.00 74 1015.5
20260905194655 25 114 0.0 0.0 0.00 0.00 0.00 76 1015.1
20260905194150 25 114 1.6 1.6 0.00 0.00 0.00 77 1015.5
20260905193649 25 119 0.0 0.0 0.00 0.00 0.00 74 1015.5
20260905193144 25 132 3.2 3.2 0.00 0.00 0.00 77 1015.5
20260905192640 25 133 0.0 0.0 0.00 0.00 0.00 79 1015.5
20260905192137 25 102 0.0 0.0 0.00 0.00 0.00 81 1015.5
20260905191636 25 97 3.2 3.2 0.00 0.00 0.00 77 1015.5
20260905191134 25 86 0.0 0.0 0.00 0.00 0.00 77 1015.5
20260905190633 25 86 0.0 0.0 0.00 0.00 0.00 77 1015.9
20260905190132 25 13 3.2 3.2 0.00 0.00 0.00 77 1015.9
20260905185631 26 120 0.0 0.0 0.00 0.00 0.00 74 1015.9
20260905185125 26 120 3.2 3.2 0.00 0.00 0.00 73 1015.9
20260905184620 25 120 0.0 0.0 0.00 0.00 0.00 75 1015.9
20260905184119 25 286 4.8 4.8 0.00 0.00 0.00 78 1015.5
20260905183619 25 239 3.2 3.2 0.00 0.00 0.00 79 1015.9
20260905183114 25 126 3.2 3.2 0.00 0.00 0.00 78 1015.9
20260905182613 25 126 0.0 0.0 0.00 0.00 0.00 77 1015.9
20260905182114 25 125 3.2 3.2 0.00 0.00 0.00 79 1015.9
20260905181614 25 95 1.6 1.6 0.00 0.00 0.00 78 1015.9
20260905181113 25 140 3.2 3.2 0.00 0.00 0.00 77 1015.9
20260905180608 25 145 0.0 0.0 0.00 0.00 0.00 78 1015.5
20260905180103 25 164 3.2 3.2 0.00 0.00 0.00 78 1015.5
20260905175602 25 198 3.2 3.2 0.00 0.00 0.00 78 1015.9
20260905175058 25 119 0.0 0.0 0.00 0.00 0.00 80 1015.5
20260905174553 25 102 3.2 3.2 0.00 0.00 0.00 79 1015.9
20260905174049 25 109 0.0 0.0 0.00 0.00 0.00 80 1015.9
20260905173545 25 134 3.2 3.2 0.00 0.00 0.00 80 1015.9
20260905173040 25 134 0.0 0.0 0.00 0.00 0.00 81 1016.2
20260905172539 24 274 0.0 0.0 0.00 0.00 0.00 81 1015.9
20260905172034 24 274 1.6 1.6 0.00 0.00 0.00 82 1016.2
20260905171531 24 240 1.6 1.6 0.00 0.00 0.00 83 1015.9
20260905171026 23 264 0.0 0.0 0.00 0.00 0.00 85 1016.2
20260905170523 23 264 3.2 3.2 0.00 0.00 0.00 85 1016.2
20260905170023 25 318 0.0 0.0 0.00 0.00 0.00 83 1016.2
20260905165518 25 318 0.0 0.0 0.00 0.00 0.00 81 1016.2
20260905165013 24 319 3.2 3.2 0.00 0.00 0.00 81 1016.2
20260905164508 25 136 3.2 3.2 0.00 0.00 0.00 80 1016.2
20260905164002 25 136 3.2 3.2 0.00 0.00 0.00 81 1016.2
20260905163459 24 291 3.2 3.2 0.00 0.00 0.00 82 1016.2
20260905162954 23 293 0.0 0.0 0.00 0.00 0.00 85 1015.9
20260905162449 24 112 0.0 0.0 0.00 0.00 0.00 83 1015.9
20260905161944 24 83 0.0 0.0 0.00 0.00 0.00 83 1015.9
20260905161443 24 88 0.0 0.0 0.00 0.00 0.00 83 1015.9